PROFILE

 METAR AND TAF INFORMATION
ADDS - METARS form results

(0412 UTC 25 April 2019)
http://aviationweather.gov/metar/data/
 
LFBD 250400Z AUTO 00000KT 9999 -RA SCT032/// OVC040/// ///TCU 10/08 Q1002 TEMPO 4000 -RA BECMG 27010KT SCT025 BKN040
LFBD 250330Z AUTO 00000KT 9999 -RA FEW034/// BKN040/// OVC049/// ///TCU 10/08 Q1002 TEMPO 4000 -RA BECMG 27010KT SCT025 BKN040
TAF AMD LFBD 250152Z 2501/2606 27010KT 9999 SCT025 BKN040 TX18/2514Z TN10/2506Z TEMPO 2501/2505 4000 -RA BECMG 2510/2512 23015G25KT BECMG 2518/2520 18008KT TEMPO 2521/2606 20015G25KT 4500 -SHRA BKN040TCU PROB30 2601/2606 23018G30KT 3500 -SHRA BKN012 BKN030TCU 

 AIRPORT MAP

 RUNWAY INFORMATION
Runway 05 Runway length 10171 ft Runway width 148 ft
Runway elevation 160 ft Runway displaced threshold 0 ft Runway heading 46
Runway 23 Runway length 10171 ft Runway width 148 ft
Runway elevation 151 ft Runway displaced threshold 0 ft Runway heading 226
Runway 11 Runway length 7923 ft Runway width 148 ft
Runway elevation 153 ft Runway displaced threshold 0 ft Runway heading 107
Runway 29 Runway length 7923 ft Runway width 148 ft
Runway elevation 160 ft Runway displaced threshold 0 ft Runway heading 287

 AIRPORT FREQUENCIES
Type APP Name AQUITAINE Frequency 118.6 MHZ
Type ARR Name APP Frequency 121.2 MHZ
Type ATIS Name ATIS Frequency 131.15 MHZ
Type GND Name GND Frequency 121.9 MHZ
Type INFO Name AQUITAINE Frequency 120.575 MHZ
Type OPS Name OPNS Frequency 143.175 MHZ
Type TWR Name TWR Frequency 118.3 MHZ

 AIRPORT NEAR NAVIGATION AIDS
Type NDB Name Bordeaux Frequency 393 KHZ
Type TACAN Name Bordeaux Frequency 114400 KHZ
Type NDB Name Bordeaux Frequency 318 KHZ
Type VOR-DME Name Bordeaux Frequency 113750 KHZ
Type NDB Name Bordeaux Frequency 361 KHZ